Weather History for PADU - August, 2013

Change the Weather History Date:

Monday, August 26, 2013

  Actual Average Record
Temperature  
Mean Temperature 61 °F -  
Max Temperature 68 °F 59 °F 72 °F (1953)
Min Temperature 50 °F 46 °F 40 °F (1985)
Degree Days  
Heating Degree Days 4    
Growing Degree Days 11 (Base 50)    
Moisture  
Dew Point 52 °F    
Average Humidity 80    
Maximum Humidity 90    
Minimum Humidity 66    
Precipitation  
Precipitation 0.00 in - - ()
Sea Level Pressure  
Sea Level Pressure 29.87 in    
Wind  
Wind Speed 13 mph (West)    
Max Wind Speed 30 mph    
Max Gust Speed 41 mph    
Visibility 10 miles    
Events Rain    
Averages and records for this station are not official NWS values.
T = Trace of Precipitation, MM = Missing Value Source: NWS Daily Summary

Daily Weather History Graph

Daily Weather History Graph

Search for Another Location

Airport or City:

Trip Planner

Search our weather history database for the weather conditions in past years. The results will help you decide how hot, cold, wet, or windy it might be!

Date:

Astronomy

Aug. 26, 2013 Rise Set
Actual Time 8:04 AM AKDT 10:09 PM AKDT
Civil Twilight 7:26 AM AKDT 10:47 PM AKDT
Nautical Twilight 6:38 AM AKDT 11:34 PM AKDT
Astronomical Twilight 5:42 AM AKDT 12:30 AM AKDT
Moon No Moon Rise 3:22 PM AKDT
Length of Visible Light 15h 20m
Length of Day
14h 04m
Waning Gibbous, 65% of the Moon is Illuminated
Aug 26
Waning Gibbous
Aug 28
Last Quarter
Sep 5
New
Sep 12
First Quarter
Sep 19
Full

Hourly Weather History & Observations

Time (AKDT) Temp. Dew Point Humidity Pressure Visibility Wind Dir Wind Speed Gust Speed Precip Events Conditions
12:56 AM 54.0 °F 51.1 °F 90% 29.91 in 10.0 mi Calm Calm - N/A Rain Light Rain
1:56 AM 57.9 °F 55.0 °F 90% 29.89 in 10.0 mi Variable 3.5 mph - N/A Rain Light Rain
2:56 AM 63.0 °F 57.9 °F 84% 29.87 in 10.0 mi Calm Calm - N/A Rain Light Rain
3:56 AM 64.0 °F 57.9 °F 80% 29.85 in 10.0 mi Variable 6.9 mph 16.1 mph N/A   Overcast
4:23 AM 66.2 °F 60.8 °F 83% 29.82 in 10.0 mi SSW 23.0 mph 27.6 mph N/A Rain Light Rain
5:56 AM 71.1 °F 59.0 °F 66% 29.78 in 10.0 mi SW 25.3 mph 39.1 mph N/A   Mostly Cloudy
6:56 AM 70.0 °F 60.1 °F 71% 29.77 in 10.0 mi SW 29.9 mph 41.4 mph N/A Rain Light Rain
7:56 AM 66.9 °F 59.0 °F 76% 29.76 in 4.0 mi SSW 16.1 mph 29.9 mph N/A Rain Light Rain
8:21 AM 66.2 °F 59.0 °F 78% 29.74 in 10.0 mi SSW 25.3 mph 31.1 mph N/A Rain Light Rain
8:56 AM 64.9 °F 57.0 °F 75% 29.76 in 9.0 mi WSW 10.4 mph - N/A Rain Light Rain
9:34 AM 62.6 °F 55.4 °F 77% 29.74 in 10.0 mi SW 18.4 mph 24.2 mph 0.00 in Rain Light Rain
9:56 AM 63.0 °F 55.0 °F 75% 29.74 in 10.0 mi WSW 16.1 mph 36.8 mph 0.00 in Rain Light Rain
10:56 AM 62.1 °F 53.1 °F 72% 29.74 in 10.0 mi WSW 15.0 mph 23.0 mph 0.00 in   Overcast
11:56 AM 62.1 °F 53.1 °F 72% 29.74 in 10.0 mi SE 8.1 mph - N/A   Overcast
12:47 PM 57.2 °F 51.8 °F 82% 29.74 in 10.0 mi SSW 25.3 mph 33.4 mph N/A   Overcast
12:56 PM 57.9 °F 51.1 °F 78% 29.74 in 10.0 mi SSW 21.9 mph 33.4 mph N/A   Overcast
1:56 PM 57.9 °F 51.1 °F 78% 29.75 in 10.0 mi South 16.1 mph 20.7 mph N/A   Overcast
2:56 PM 57.9 °F 50.0 °F 75% 29.76 in 10.0 mi South 15.0 mph 19.6 mph N/A   Overcast
3:56 PM 57.9 °F 50.0 °F 75% 29.79 in 10.0 mi South 13.8 mph 19.6 mph N/A   Mostly Cloudy
4:56 PM 57.0 °F 48.9 °F 74% 29.83 in 10.0 mi NNW 20.7 mph - N/A   Mostly Cloudy
5:54 PM 53.6 °F 48.2 °F 82% 29.88 in 10.0 mi NW 21.9 mph - N/A   Mostly Cloudy
5:56 PM 53.1 °F 48.9 °F 86% 29.87 in 10.0 mi NW 21.9 mph - N/A   Mostly Cloudy
6:56 PM 52.0 °F 48.0 °F 86% 29.92 in 10.0 mi NNW 25.3 mph 34.5 mph N/A   Mostly Cloudy
7:10 PM 51.8 °F 48.2 °F 88% 29.94 in 10.0 mi NNW 26.5 mph 34.5 mph N/A   Mostly Cloudy
7:56 PM 53.1 °F 46.9 °F 80% 29.96 in 10.0 mi NNW 20.7 mph 27.6 mph N/A   Mostly Cloudy
8:09 PM 53.6 °F 46.4 °F 77% 29.97 in 10.0 mi NNW 18.4 mph 27.6 mph N/A   Overcast
8:56 PM 52.0 °F 46.9 °F 83% 30.01 in 10.0 mi WNW 9.2 mph 20.7 mph N/A   Overcast
9:08 PM 51.8 °F 48.2 °F 88% 30.00 in 10.0 mi WNW 15.0 mph - N/A   Overcast
9:56 PM 51.1 °F 46.9 °F 86% 30.04 in 10.0 mi NW 12.7 mph - N/A   Overcast
10:41 PM 51.8 °F 46.4 °F 82% 30.04 in 10.0 mi NNW 11.5 mph - N/A   Overcast
10:56 PM 51.1 °F 46.9 °F 86% 30.06 in 10.0 mi North 9.2 mph - N/A   Overcast
11:12 PM 51.8 °F 46.4 °F 82% 30.05 in 10.0 mi NNW 11.5 mph - N/A   Overcast
11:56 PM 50.0 °F 46.0 °F 86% 30.09 in 10.0 mi North 13.8 mph - N/A   Mostly Cloudy